This is the latest recevied weather packets stored in our database for station/object KC9Q. If no packets are shown the sender has not sent any weather packets the latest 10 day(s).
| Time | Temp. | Humidity | Pressure | Rain* | Wind** | Luminosity | Snow |
|---|---|---|---|---|---|---|---|
| 1778012441 | 17.22° C | 99% | 1006.5 hPa | 1.78 mm | - | 67 W/m² | - |
| 1778012138 | 17.22° C | 99% | 1006.3 hPa | 1.78 mm | - | 76 W/m² | - |
| 1778011836 | 17.22° C | 99% | 1006.6 hPa | 1.78 mm | - | 66 W/m² | - |
| 1778011534 | 17.22° C | 99% | 1006.9 hPa | 1.78 mm | - | 68 W/m² | - |
| 1778011230 | 17.22° C | 99% | 1006.7 hPa | 1.78 mm | - | 69 W/m² | - |
| 1778010926 | 17.22° C | 99% | 1006.6 hPa | 1.78 mm | - | 62 W/m² | - |
| 1778010624 | 17.22° C | 99% | 1006.6 hPa | 1.27 mm | - | 93 W/m² | - |
| 1778010321 | 17.22° C | 99% | 1006.7 hPa | 1.27 mm | - | 82 W/m² | - |
| 1778010016 | 17.22° C | 99% | 1006.7 hPa | 1.78 mm | - | 81 W/m² | - |
| 1778009714 | 17.22° C | 99% | 1006.5 hPa | 1.27 mm | - | 71 W/m² | - |
| 1778009411 | 17.22° C | 99% | 1006.7 hPa | 0.51 mm | - | 94 W/m² | - |
| 1778009110 | 17.22° C | 99% | 1006.6 hPa | 0.51 mm | - | 79 W/m² | - |
| 1778008807 | 17.22° C | 98% | 1006.9 hPa | 0.51 mm | - | 55 W/m² | - |
| 1778008505 | 17.78° C | 98% | 1006.9 hPa | 0 mm | - | 63 W/m² | - |
| 1778008202 | 17.78° C | 98% | 1006.5 hPa | 0 mm | - | 158 W/m² | - |
| 1778007897 | 17.78° C | 97% | 1006.8 hPa | 0 mm | - | 100 W/m² | - |
| 1778007593 | 17.78° C | 96% | 1007 hPa | 0 mm | - | 84 W/m² | - |
| 1778007290 | 17.78° C | 95% | 1007 hPa | 0 mm | - | 90 W/m² | - |
| 1778006986 | 17.78° C | 95% | 1007.1 hPa | 0 mm | - | 82 W/m² | - |
| 1778006683 | 17.78° C | 96% | 1007 hPa | 0 mm | - | 131 W/m² | - |
| 1778006379 | 17.78° C | 95% | 1006.7 hPa | 0 mm | - | 207 W/m² | - |
| 1778006077 | 17.78° C | 97% | 1006.6 hPa | 0 mm | - | 314 W/m² | - |
| 1778005773 | 17.78° C | 97% | 1006.2 hPa | 0 mm | - | 331 W/m² | - |
| 1778005471 | 17.22° C | 97% | 1006.5 hPa | 0 mm | - | 129 W/m² | - |
| 1778005166 | 17.22° C | 97% | 1006.8 hPa | 0 mm | - | 114 W/m² | - |
* Rain latest hour (hover to see other rain measurements)
** Current wind speed in m/s (hover to see current wind gust speed)